Regional Weather Roundup
Issued by NWS

Home | Current Version | Previous Version | Text Only | Print | Product List | Glossary Off
Versions: 1 2 3 4 5 6 7 8 9 10 11 12 13 14 15 16 17 18 19 20 21 22 23 24 25 26 27 28 29 30 31 32 33 34 35 36 37 38 39 40 41 42 43 44 45 46 47 48 49 50

000
ASUS43 KDMX 290103
RWRIA

WEATHER ROUNDUP FOR IOWA
NATIONAL WEATHER SERVICE DES MOINES IA
800 PM CDT WED SEP 28 2016

NOTE: "FAIR" INDICATES FEW OR NO CLOUDS BELOW 12,000 FEET WITH NO
SIGNIFICANT WEATHER AND/OR OBSTRUCTIONS TO VISIBILITY.

* - THESE STATIONS ARE NOT NWS STATIONS...THUS NOT UNDER NWS
QUALITY CONTROL.  THEY ALSO DO NOT REPORT WEATHER SUCH
AS PRECIPITATION OR FOG.

IAZ001>003-012>014-020>022-031>034-043>046-290200-
   NORTHWEST IOWA

CITY           SKY/WX    TMP DP  RH WIND       PRES   REMARKS
CARROLL *        N/A    N/A N/A N/A MISG      30.27R
CHEROKEE *     CLOUDY    57  50  78 CALM      30.29R
DENISON *      CLOUDY    57  46  67 NE6       30.26R HAZE
LE MARS *      CLEAR     52  46  82 CALM      30.31S
ORANGE CITY *  PTCLDY    55  48  76 N6        30.31S
SHELDON *      CLOUDY    55  48  76 N6        30.29S
SIOUX CITY     CLEAR     58  47  66 NE6       30.30R
SPENCER        PTCLDY    55  47  74 NE7       30.30R
STORM LAKE *   PTCLDY    57  46  67 NE7       30.29S
$$

IAZ055>058-069>071-079>083-090>094-290200-
   SOUTHWEST IOWA

CITY           SKY/WX    TMP DP  RH WIND       PRES   REMARKS
ATLANTIC *     PTCLDY    57  48  72 NE5       30.27R HAZE
AUDUBON *      PTCLDY    55  46  71 N8        30.28R
CLARINDA *       N/A     57  50  77 MISG      30.27R
COUNCIL BLFS * PTCLDY    55  48  76 N5        30.27R
CRESTON *      MOCLDY    55  46  71 N6        30.26R
HARLAN  *      CLOUDY    59  48  67 NE9       30.30R
LAMONI         CLOUDY    57  49  74 N6        30.23R
RED OAK *      CLOUDY    59  50  72 MISG      30.26R
SHENANDOAH *   CLOUDY    61  50  67 N3        30.25R
$$

IAZ047>049-059>061-072>074-084-290200-
   CENTRAL IOWA

CITY           SKY/WX    TMP DP  RH WIND       PRES   REMARKS
AMES           CLOUDY    60  51  72 N9        30.24R
ANKENY *         N/A    N/A N/A N/A MISG        N/A
BOONE *        CLOUDY    57  50  77 NW7       30.24R
CHARITON *       N/A     55  50  82 NW8       30.21S
DES MOINES     CLOUDY    60  49  66 N7        30.23R
GRINNELL*      CLOUDY    58  49  73 NW6       30.21S
KNOXVILLE *    CLOUDY    57  50  77 NW8       30.20S
MARSHALLTOWN   CLOUDY    57  50  77 NW8       30.21R
NEWTON *       CLOUDY    59  50  72 N9        30.21R
PELLA *        CLOUDY    57  49  76 NW5       30.22R
PERRY *          N/A     55  49  82 NW6       30.26R
$$

IAZ004>006-015-016-023>025-035-036-290200-
   NORTH CENTRAL IOWA

CITY           SKY/WX    TMP DP  RH WIND       PRES   REMARKS
ALGONA *       MOCLDY    57  48  72 N7        30.29R
CLARION *      MOCLDY    57  50  77 N7        30.26R
ESTHERVILLE    PTCLDY    51  46  83 N8        30.30R
FORT DODGE *   MOCLDY    55  45  67 N5        30.27S
MASON CITY     CLEAR     51  47  86 N8        30.27R
FOREST CITY *    N/A     54  46  76 N8        30.27R
WEBSTER CITY * MOCLDY    57  50  77 NW8       30.24R
IOWA FALLS *   MOCLDY    57  49  75 NW6       30.24S
$$

IAZ007>011-017>019-026>030-037>042-050>054-066-290200-
   NORTHEAST IOWA

CITY           SKY/WX    TMP DP  RH WIND       PRES   REMARKS
CEDAR RAPIDS   CLEAR     54  51  90 NW6       30.17R
CHARLES CITY * PTCLDY    57  48  72 N5        30.23R
CLINTON *      CLEAR     54  50  86 N9        30.16R
DECORAH *      MOCLDY    55  52  88 N5        30.22R
DUBUQUE        PTCLDY    55  50  83 NE8       30.19R
MONTICELLO *   CLOUDY    61  52  72 N7        30.17R
OELWEIN *      PTCLDY    57  50  77 N9        30.22R
WATERLOO       CLOUDY    57  49  74 N6        30.21R
$$

IAZ064-065-067-068-078-290200-
   EAST CENTRAL IOWA

CITY           SKY/WX    TMP DP  RH WIND       PRES   REMARKS
DAVENPORT      PTCLDY    55  50  83 N9        30.16R
IOWA CITY      PTCLDY    60  50  69 N7        30.18R
MUSCATINE *    CLOUDY    63  48  59 N15       30.15R
QUAD CITIES    PTCLDY    59  50  72 N8        30.14R
$$

IAZ062-063-075>077-085>089-095>099-290200-
   SOUTHEAST IOWA

CITY           SKY/WX    TMP DP  RH WIND       PRES   REMARKS
BURLINGTON     MOCLDY    59  48  67 N8        30.14R
FAIRFIELD *    CLEAR     55  46  71 NW9       30.17R
FORT MADISON * CLOUDY    57  48  72 NW5       30.16R
KEOKUK *       MOCLDY    59  48  67 VRB6      30.14R
OSKALOOSA *      N/A     54  48  81 N5        30.19S
OTTUMWA        PTCLDY    56  48  74 NW8       30.19R
WASHINGTON *     N/A    N/A N/A N/A MISG        N/A
$$

ABBREVIATIONS USED IN REMARKS
   TC - TEMPERATURES IN CELSIUS
  WCI - WIND CHILL INDEX
   HX - HEAT INDEX
  VSB - VISIBILITY
$$




USA.gov is the U.S. government's official web portal to all federal, state and local government web resources and services.